| time (UTC) | temp F | wind direction | speed knots | gust knots | rain 1hr in | rain 24hr in | rain mn in | humidity % | barometer mb |
| 20260504081523 | 46 | 160 | 5.2 | 7.8 | 0.00 | 0.00 | 0.00 | 57 | 1013.7 |
| 20260504080120 | 46 | 165 | 4.3 | 6.1 | 0.00 | 0.00 | 0.00 | 56 | 1013.7 |
| 20260504044600 | 48 | 157 | 3.5 | 6.1 | 0.00 | 0.00 | 0.00 | 52 | 1014.0 |
| 20260504043059 | 48 | 164 | 2.6 | 4.3 | 0.00 | 0.00 | 0.00 | 52 | 1014.0 |
| 20260504041551 | 48 | 168 | 1.7 | 3.5 | 0.00 | 0.00 | 0.00 | 52 | 1014.0 |
| 20260504040111 | 49 | 171 | 3.5 | 5.2 | 0.00 | 0.00 | 0.00 | 50 | 1014.1 |
| 20260504034547 | 49 | 190 | 1.7 | 2.6 | 0.00 | 0.00 | 0.00 | 50 | 1014.1 |
| 20260504033049 | 49 | 190 | 0.9 | 2.6 | 0.00 | 0.00 | 0.00 | 50 | 1014.1 |
| 20260504031555 | 49 | 190 | 1.7 | 2.6 | 0.00 | 0.00 | 0.00 | 51 | 1014.2 |
| 20260504030046 | 49 | 200 | 1.7 | 2.6 | 0.00 | 0.00 | 0.00 | 50 | 1014.2 |
| 20260504024545 | 50 | 254 | 0.9 | 1.7 | 0.00 | 0.00 | 0.00 | 49 | 1014.2 |
| 20260504023045 | 50 | 254 | 0.0 | 0.0 | 0.00 | 0.00 | 0.00 | 49 | 1014.6 |
| 20260504021544 | 50 | 254 | 0.0 | 0.0 | 0.00 | 0.00 | 0.00 | 48 | 1014.6 |
| 20260504020053 | 50 | 254 | 0.0 | 1.7 | 0.00 | 0.00 | 0.00 | 49 | 1014.4 |
| 20260504014544 | 50 | 254 | 0.0 | 0.9 | 0.00 | 0.00 | 0.00 | 49 | 1014.4 |
| 20260504013044 | 50 | 254 | 0.0 | 0.9 | 0.00 | 0.00 | 0.00 | 51 | 1014.4 |
| 20260504011543 | 50 | 254 | 0.0 | 0.9 | 0.00 | 0.00 | 0.00 | 50 | 1014.3 |
| 20260504010042 | 51 | 254 | 0.0 | 1.7 | 0.00 | 0.00 | 0.00 | 47 | 1014.3 |
| 20260504004541 | 51 | 254 | 1.7 | 3.5 | 0.00 | 0.00 | 0.00 | 47 | 1014.2 |
| 20260504003040 | 51 | 241 | 2.6 | 7.8 | 0.00 | 0.00 | 0.00 | 47 | 1014.0 |
| 20260504001549 | 51 | 232 | 0.9 | 2.6 | 0.00 | 0.00 | 0.00 | 48 | 1013.6 |
| 20260504000040 | 51 | 232 | 0.9 | 2.6 | 0.00 | 0.00 | 0.00 | 48 | 1013.4 |
| 20260503234600 | 50 | 232 | 0.9 | 2.6 | 0.00 | 0.00 | 0.00 | 49 | 1013.3 |
| 20260503233046 | 52 | 233 | 0.9 | 2.6 | 0.00 | 0.00 | 0.00 | 46 | 1013.4 |
| 20260503231538 | 52 | 236 | 0.9 | 2.6 | 0.00 | 0.00 | 0.00 | 46 | 1013.4 |
| 20260503230038 | 51 | 236 | 0.9 | 2.6 | 0.00 | 0.00 | 0.00 | 49 | 1013.3 |
| 20260503224536 | 52 | 236 | 0.9 | 2.6 | 0.00 | 0.00 | 0.00 | 47 | 1013.4 |
| 20260503223038 | 52 | 236 | 0.9 | 2.6 | 0.00 | 0.00 | 0.00 | 47 | 1013.3 |
| 20260503221537 | 52 | 236 | 0.9 | 4.3 | 0.00 | 0.00 | 0.00 | 45 | 1013.5 |
| 20260503220034 | 52 | 256 | 1.7 | 4.3 | 0.00 | 0.00 | 0.00 | 45 | 1013.7 |
| 20260503214532 | 52 | 239 | 0.0 | 3.5 | 0.00 | 0.00 | 0.00 | 47 | 1013.7 |
| 20260503213036 | 51 | 246 | 1.7 | 5.2 | 0.00 | 0.00 | 0.00 | 46 | 1013.7 |
| 20260503211539 | 52 | 246 | 2.6 | 10.4 | 0.00 | 0.00 | 0.00 | 47 | 1013.6 |
| 20260503210031 | 52 | 252 | 4.3 | 7.8 | 0.00 | 0.00 | 0.00 | 48 | 1014.0 |
| 20260503204530 | 52 | 261 | 2.6 | 7.8 | 0.00 | 0.00 | 0.00 | 46 | 1013.9 |
| 20260503203031 | 51 | 243 | 4.3 | 7.8 | 0.00 | 0.00 | 0.00 | 45 | 1013.9 |
| 20260503201529 | 52 | 284 | 3.5 | 9.6 | 0.00 | 0.00 | 0.00 | 42 | 1013.7 |
| 20260503200029 | 53 | 279 | 1.7 | 7.8 | 0.00 | 0.00 | 0.00 | 39 | 1013.8 |
| 20260503194526 | 52 | 250 | 2.6 | 7.0 | 0.00 | 0.00 | 0.00 | 41 | 1013.9 |
| 20260503193025 | 52 | 253 | 3.5 | 7.0 | 0.00 | 0.00 | 0.00 | 38 | 1014.0 |
| 20260503191530 | 53 | 257 | 3.5 | 6.1 | 0.00 | 0.00 | 0.00 | 39 | 1014.4 |
| 20260503190023 | 53 | 245 | 2.6 | 6.1 | 0.00 | 0.00 | 0.00 | 38 | 1014.2 |
| 20260503184520 | 52 | 312 | 3.5 | 7.0 | 0.00 | 0.00 | 0.00 | 37 | 1014.5 |
| 20260503183019 | 51 | 279 | 3.5 | 7.8 | 0.00 | 0.00 | 0.00 | 38 | 1014.7 |
| 20260503181517 | 51 | 213 | 4.3 | 9.6 | 0.00 | 0.00 | 0.00 | 37 | 1014.8 |
| 20260503180016 | 51 | 244 | 2.6 | 7.8 | 0.00 | 0.00 | 0.00 | 38 | 1014.9 |
| 20260503174513 | 50 | 258 | 1.7 | 6.1 | 0.00 | 0.00 | 0.00 | 41 | 1015.4 |
| 20260503173012 | 50 | 225 | 3.5 | 10.4 | 0.00 | 0.00 | 0.00 | 43 | 1015.6 |
| 20260503171510 | 50 | 241 | 3.5 | 7.0 | 0.00 | 0.00 | 0.00 | 43 | 1015.7 |